This is the latest recevied weather packets stored in our database for station/object DG9MHV-10. If no packets are shown the sender has not sent any weather packets the latest 10 day(s).
| Time | Temp. | Humidity | Pressure | Rain* | Wind** | Luminosity | Snow |
|---|---|---|---|---|---|---|---|
| 1777290079 | 20° C | 73% | 1020.6 hPa | - | - | - | - |
| 1777289178 | 19.44° C | 91% | 1020.7 hPa | - | - | - | - |
| 1777288278 | 18.89° C | 91% | 1020.8 hPa | - | - | - | - |
| 1777287378 | 18.89° C | 88% | 1020.9 hPa | - | - | - | - |
| 1777286478 | 18.33° C | 87% | 1021.1 hPa | - | - | - | - |
| 1777285578 | 20° C | 77% | 1021.1 hPa | - | - | - | - |
| 1777284678 | 20.56° C | 75% | 1021.3 hPa | - | - | - | - |
| 1777283778 | 20° C | 70% | 1021.4 hPa | - | - | - | - |
| 1777282878 | 20° C | 64% | 1021.7 hPa | - | - | - | - |
| 1777281978 | 20.56° C | 64% | 1021.6 hPa | - | - | - | - |
| 1777281078 | 21.11° C | 59% | 1021.8 hPa | - | - | - | - |
| 1777280178 | 21.67° C | 53% | 1021.8 hPa | - | - | - | - |
| 1777279278 | 22.78° C | 60% | 1021.8 hPa | - | - | - | - |
| 1777278378 | 23.89° C | 64% | 1021.8 hPa | - | - | - | - |
| 1777277478 | 23.33° C | 95% | 1021.9 hPa | - | - | - | - |
| 1777276577 | 23.89° C | 90% | 1021.8 hPa | - | - | - | - |
| 1777275677 | 24.44° C | 85% | 1021.7 hPa | - | - | - | - |
| 1777274777 | 25° C | 99% | 1021.7 hPa | - | - | - | - |
| 1777273877 | 23.89° C | 100% | 1021.8 hPa | - | - | - | - |
| 1777272977 | 22.78° C | 100% | 1021.9 hPa | - | - | - | - |
| 1777272077 | 23.33° C | 100% | 1021.8 hPa | - | - | - | - |
| 1777271177 | 22.22° C | 100% | 1021.9 hPa | - | - | - | - |
| 1777270277 | 21.11° C | 100% | 1021.8 hPa | - | - | - | - |
| 1777269377 | 20° C | 100% | 1021.9 hPa | - | - | - | - |
| 1777268477 | 18.89° C | 100% | 1021.8 hPa | - | - | - | - |
* Rain since midnight (hover to see other rain measurements)
** Current wind speed in m/s (hover to see current wind gust speed)